Richmond, VA

12:51 PM EST on December 16, 2017 (GMT -0500)
Richmond International

Weather History for KRIC - November, 2011

Change the Weather History Date:

Wednesday, November 9, 2011

  Actual Average Record
Temperature  
Mean Temperature 53 °F 53 °F  
Max Temperature 66 °F 64 °F 81 °F (1986)
Min Temperature 39 °F 41 °F 17 °F (1976)
Degree Days  
Heating Degree Days 12 13  
Month to date heating degree days 124 104  
Since 1 July heating degree days 338 337  
Cooling Degree Days 0 0  
Month to date cooling degree days 0 0  
Year to date cooling degree days 1898 1543  
Growing Degree Days 2 (Base 50)    
Moisture  
Dew Point 46 °F    
Average Humidity 79    
Maximum Humidity 100    
Minimum Humidity 58    
Precipitation  
Precipitation 0.00 in 0.11 in 2.22 in (1962)
Month to date precipitation 0.31 0.98  
Year to date precipitation 41.64 38.08  
Snow  
Snow 0.00 in 0.00 in T in (1900)
Month to date snowfall 0.0 0.0  
Since 1 July snowfall 0.0 0.0  
Snow Depth 0.00 in    
Sea Level Pressure  
Sea Level Pressure 30.14 in    
Wind  
Wind Speed 1 mph (SSE)    
Max Wind Speed 8 mph    
Max Gust Speed 10 mph    
Visibility 4 miles    
Events Fog    
T = Trace of Precipitation, MM = Missing Value Source: NWS Daily Summary

Daily Weather History Graph

Daily Weather History Graph

Search for Another Location

Airport or City:

Trip Planner

Search our weather history database for the weather conditions in past years. The results will help you decide how hot, cold, wet, or windy it might be!

Date:

Astronomy

Nov. 09, 2011 Rise Set
Actual Time 6:42 AM EST 5:03 PM EST
Civil Twilight 6:14 AM EST 5:30 PM EST
Nautical Twilight 5:43 AM EST 6:02 PM EST
Astronomical Twilight 5:12 AM EST 6:32 PM EST
Moon 4:14 PM EST (11/9) 5:36 AM EST (11/9)
Length of Visible Light 11h 16m
Length of Day
10h 21m
Waxing Gibbous, 99% of the Moon is Illuminated
Nov 9
Waxing Gibbous
Nov 10
Full
Nov 18
Last Quarter
Nov 25
New
Dec 2
First Quarter

Hourly Weather History & Observations

Time (EST) Temp. Dew Point Humidity Pressure Visibility Wind Dir Wind Speed Gust Speed Precip Events Conditions
12:54 AM 42.1 °F 39.9 °F 92% 30.22 in 7.0 mi Calm Calm - N/A   Clear
1:54 AM 41.0 °F 39.0 °F 93% 30.21 in 5.0 mi Calm Calm - N/A   Clear
2:40 AM 39.2 °F 37.4 °F 93% 30.19 in 7.0 mi Calm Calm - N/A   Scattered Clouds
2:41 AM 39.2 °F 37.4 °F 93% 30.19 in 6.0 mi Calm Calm - N/A   Mostly Cloudy
2:54 AM 39.9 °F 37.9 °F 93% 30.20 in 5.0 mi Calm Calm - N/A   Mostly Cloudy
3:34 AM 41.0 °F 39.2 °F 93% 30.19 in 6.0 mi Calm Calm - N/A   Overcast
3:54 AM 41.0 °F 39.9 °F 96% 30.20 in 2.0 mi Calm Calm - N/A   Overcast
4:01 AM 42.8 °F 41.0 °F 93% 30.19 in 0.2 mi Calm Calm - N/A Fog Fog
4:12 AM 42.8 °F 41.0 °F 93% 30.19 in 0.2 mi Calm Calm - N/A Fog Fog
4:48 AM 42.8 °F 42.8 °F 100% 30.18 in 0.1 mi Calm Calm - N/A Fog Fog
4:54 AM 44.1 °F 43.0 °F 96% 30.20 in 0.1 mi Calm Calm - N/A Fog Fog
5:54 AM 44.1 °F 44.1 °F 100% 30.19 in 0.1 mi Calm Calm - N/A Fog Fog
6:30 AM 44.6 °F 44.6 °F 100% 30.18 in 0.1 mi Calm Calm - N/A Fog Fog
6:54 AM 44.1 °F 43.0 °F 96% 30.20 in 0.1 mi Calm Calm - N/A Fog Fog
7:20 AM 44.6 °F 44.6 °F 100% 30.19 in 0.1 mi Calm Calm - N/A Fog Fog
7:54 AM 44.1 °F 44.1 °F 100% 30.21 in 0.1 mi Calm Calm - N/A Fog Fog
8:01 AM 44.6 °F 44.6 °F 100% 30.19 in 0.1 mi Calm Calm - N/A Fog Fog
8:54 AM 45.0 °F 44.1 °F 97% 30.21 in 0.1 mi Calm Calm - N/A Fog Fog
9:54 AM 46.0 °F 46.0 °F 100% 30.22 in 0.1 mi Calm Calm - N/A Fog Fog
10:03 AM 46.4 °F 46.4 °F 100% 30.20 in 0.1 mi Calm Calm - N/A Fog Fog
10:16 AM 48.2 °F 46.4 °F 93% 30.19 in 0.5 mi NW 3.5 mph - N/A Fog Fog
10:29 AM 48.2 °F 46.4 °F 93% 30.19 in 1.0 mi Calm Calm - N/A   Overcast
10:54 AM 51.1 °F 48.0 °F 89% 30.21 in 2.5 mi Calm Calm - N/A   Mostly Cloudy
11:01 AM 51.8 °F 48.2 °F 88% 30.18 in 3.0 mi Calm Calm - N/A   Mostly Cloudy
11:19 AM 53.6 °F 48.2 °F 82% 30.17 in 5.0 mi Calm Calm - N/A   Mostly Cloudy
11:54 AM 57.9 °F 48.9 °F 72% 30.16 in 8.0 mi Calm Calm - N/A   Partly Cloudy
12:54 PM 62.1 °F 48.9 °F 62% 30.12 in 10.0 mi Calm Calm - N/A   Partly Cloudy
1:54 PM 64.9 °F 51.1 °F 61% 30.09 in 10.0 mi SSE 3.5 mph - N/A   Scattered Clouds
2:54 PM 66.0 °F 52.0 °F 60% 30.07 in 10.0 mi SSW 5.8 mph - N/A   Partly Cloudy
3:54 PM 66.0 °F 51.1 °F 59% 30.06 in 10.0 mi South 4.6 mph - N/A   Scattered Clouds
4:54 PM 62.1 °F 51.1 °F 67% 30.05 in 10.0 mi SSE 6.9 mph - N/A   Mostly Cloudy
5:54 PM 57.9 °F 52.0 °F 81% 30.04 in 10.0 mi Calm Calm - N/A   Mostly Cloudy
6:54 PM 55.0 °F 51.1 °F 86% 30.03 in 10.0 mi SE 4.6 mph - N/A   Scattered Clouds
7:54 PM 51.1 °F 48.9 °F 92% 30.02 in 10.0 mi SE 5.8 mph - N/A   Scattered Clouds
8:54 PM 53.6 °F 51.8 °F 94% 30.00 in 10.0 mi Calm Calm - N/A   Mostly Cloudy
9:54 PM 53.1 °F 51.1 °F 93% 30.01 in 10.0 mi Calm Calm - N/A   Mostly Cloudy
10:50 PM 50.0 °F 48.2 °F 94% 29.99 in 1.8 mi Calm Calm - N/A   Clear
10:52 PM 48.2 °F 48.2 °F 100% 29.99 in 1.0 mi Calm Calm - N/A   Unknown
10:54 PM 48.9 °F 48.0 °F 97% 30.00 in 9.0 mi Calm Calm - N/A Fog Shallow Fog
11:54 PM 50.0 °F 48.9 °F 96% 29.99 in 8.0 mi Calm Calm - N/A Fog Shallow Fog